Wind_Speed
24 22 20 19 19 19 18 16 15 14 14 12 11 9 8 6 6 6 6 7 8 10 10 10 9 9 9 9 9 9 8 8 8 8 8 9 9 8 9 9 10 11 11 11
25 23 22 22 21 21 19 18 16 16 16 14 12 11 9 8 7 7 6 6 8 10 9 10 11 9 9 10 9 9 8 9 9 9 10 10 9 9 10 10 11 12 12 13
25 24 24 24 23 22 21 20 19 19 18 17 15 13 12 10 9 8 7 7 8 10 10 10 11 10 10 10 10 9 9 10 11 11 11 10 10 11 10 11 12 13 13 14
27 27 26 25 24 22 22 21 21 21 21 20 18 16 12 12 11 9 9 8 9 10 11 11 12 11 10 10 10 10 10 11 11 12 12 12 12 12 12 11 11 12 13 14
28 28 27 25 24 24 23 24 24 24 23 22 20 18 14 14 12 10 9 9 10 11 12 12 12 12 11 10 10 10 10 11 12 12 13 13 13 13 12 12 12 11 13 13
30 29 28 26 26 26 25 26 27 26 25 24 21 20 16 15 13 12 11 11 12 13 13 13 12 12 12 11 10 11 11 12 13 13 13 14 13 11 10 11 11 12 13 12
31 30 29 28 29 28 28 27 27 27 26 24 21 21 18 16 15 13 12 11 12 12 12 13 13 12 12 12 12 12 12 13 13 13 13 13 12 11 10 10 10 11 12 12
31 30 29 28 28 29 28 28 27 27 25 23 22 22 18 17 15 14 12 11 10 11 11 12 12 13 13 13 13 13 13 13 13 13 13 13 12 11 11 11 11 11 12 13
30 29 29 28 28 29 29 28 27 27 26 25 23 21 18 17 16 15 14 13 12 12 11 11 12 13 13 12 12 13 13 13 13 14 13 13 12 11 10 10 11 11 11 12
31 30 29 29 30 30 29 28 28 28 27 25 23 20 18 17 16 16 15 13 13 13 12 12 13 13 13 13 13 13 13 13 13 13 13 13 12 10 9 10 10 11 12 13
31 30 30 30 30 29 29 29 28 28 27 25 23 19 17 17 16 15 14 14 13 12 12 12 12 13 13 13 12 12 12 12 12 12 12 12 11 10 9 9 9 11 11 12
30 30 30 31 30 30 30 29 27 27 26 24 22 18 16 15 14 14 14 13 12 12 12 11 12 13 12 12 11 11 12 12 12 11 11 10 10 10 10 9 10 11 11 12
32 31 30 30 31 31 30 29 28 27 26 25 23 19 16 16 14 14 13 13 13 13 12 11 12 12 12 11 11 11 11 11 11 11 10 10 10 9 9 9 9 10 11 13
31 30 29 28 28 28 28 28 28 27 27 25 22 19 17 16 15 15 14 13 13 12 12 12 12 12 12 11 10 11 11 10 11 11 11 11 10 10 10 10 10 10 11 12
32 30 29 28 27 28 27 27 27 27 26 24 21 20 18 17 16 16 15 14 13 13 13 13 13 12 12 11 11 11 11 11 11 11 11 11 10 10 10 10 11 12 13 13
32 31 30 29 29 29 28 27 27 26 26 25 23 21 19 17 16 16 16 15 14 14 13 12 12 11 12 11 12 12 12 11 12 12 11 11 11 10 10 10 11 12 13 14
32 31 31 30 29 30 30 28 27 26 25 25 24 22 21 19 18 17 16 16 15 14 13 13 12 12 12 13 13 13 12 12 11 10 10 10 9 9 10 10 11 12 12 13
31 31 31 30 30 32 29 28 27 27 26 25 24 22 21 20 18 17 16 16 16 15 15 14 14 14 14 14 14 13 13 13 11 10 9 9 9 10 11 11 12 12 13 13
32 32 31 31 32 31 29 28 28 27 27 25 24 22 22 21 20 19 17 17 17 16 15 15 16 16 15 14 14 13 13 12 11 10 10 10 11 11 11 12 12 13 13 12
34 33 33 33 32 33 30 29 28 28 27 25 25 24 23 22 21 19 18 18 18 17 17 17 16 16 16 15 13 12 12 12 11 11 11 11 12 12 13 13 13 12 12 12
36 36 35 35 34 33 31 30 29 29 27 25 25 25 24 23 21 20 20 20 19 18 17 17 17 17 17 15 13 13 12 13 13 13 12 13 13 13 13 13 13 13 14 14
39 38 38 37 36 35 32 32 31 30 28 27 26 25 25 24 23 22 20 20 19 18 18 17 17 16 16 16 14 14 14 13 14 14 13 13 14 14 14 15 15 15 15 16
41 40 39 38 37 35 34 34 32 31 30 28 26 25 25 24 24 23 22 21 20 20 20 18 17 17 17 15 15 15 14 14 14 14 14 15 15 16 16 16 17 17 18 18
41 41 40 39 38 36 35 34 33 32 31 29 27 26 25 24 24 23 23 22 22 21 20 17 17 17 16 16 15 15 15 15 15 15 15 16 17 17 17 17 17 18 19 19
41 41 39 39 37 36 34 34 33 32 31 31 30 28 26 25 25 25 24 23 23 22 21 20 19 17 16 16 15 16 16 16 16 16 16 16 17 18 18 19 19 19 19 20
38 38 38 37 36 35 34 33 32 32 31 30 30 28 27 25 25 26 25 25 24 23 21 20 19 18 18 17 16 16 17 17 16 16 16 17 18 18 19 19 19 19 19 20
Wind_Direction
229 229 229 231 231 232 234 236 238 243 253 258 263 268 276 290 308 323 336 336 342 345 347 348 344 337 336 335 332 327 325 320 315 314 307 304 303 294 283 264 255 256 259 256
229 228 227 229 230 232 234 236 237 240 248 256 262 267 274 285 296 302 315 317 325 334 336 336 336 327 323 324 323 318 315 311 307 301 299 299 297 290 283 268 257 256 256 256
230 228 229 230 230 231 234 237 237 238 247 256 263 270 278 280 286 293 298 301 311 318 318 322 323 326 318 315 312 309 307 305 303 299 297 296 290 288 283 274 265 258 250 250
228 228 229 230 231 232 233 235 236 238 244 252 262 269 276 277 285 291 291 295 301 308 308 312 313 312 314 311 308 306 300 297 298 299 298 295 288 284 280 276 271 264 255 248
228 228 229 230 231 232 232 234 235 238 244 250 260 270 274 278 284 285 287 293 297 304 304 304 305 303 302 302 304 303 298 296 298 298 299 296 290 286 278 274 268 264 258 250
226 227 228 228 229 230 231 233 235 239 245 250 259 268 272 279 283 281 280 290 298 301 302 298 296 297 294 297 300 301 299 298 298 300 300 297 293 293 287 276 268 262 258 252
227 228 228 228 229 230 231 234 236 240 245 253 259 263 268 275 278 280 282 289 294 301 305 302 297 294 290 293 297 296 300 301 303 304 304 302 296 293 288 279 271 263 257 253
227 228 229 229 231 233 234 236 239 244 249 255 257 260 266 269 272 274 278 285 291 300 308 307 301 298 293 290 292 292 295 297 300 302 303 301 297 292 287 277 272 264 257 256
227 227 228 228 229 231 232 234 238 243 249 253 256 261 263 265 266 267 273 280 288 296 300 304 302 299 295 291 290 292 292 293 296 298 301 302 298 289 282 276 270 264 260 259
225 224 224 226 226 228 229 231 236 241 248 253 256 259 262 263 264 265 271 278 285 290 295 301 301 298 295 293 294 293 294 298 299 296 297 298 297 288 282 276 272 267 264 263
223 223 222 224 226 228 230 232 235 240 246 251 256 258 262 264 264 264 266 273 283 288 293 299 306 306 297 292 292 294 297 298 300 297 296 296 295 290 283 277 272 265 261 265
222 222 221 223 225 227 229 232 236 240 246 251 255 255 256 261 263 263 266 271 277 282 289 296 304 305 301 297 295 297 299 302 300 295 295 293 289 286 278 274 271 268 267 270
221 222 222 223 224 227 229 231 234 239 244 248 253 254 255 257 260 264 266 267 274 280 288 298 300 301 301 302 298 297 296 300 301 294 293 294 291 284 281 281 278 275 273 275
221 223 225 227 229 230 231 233 237 240 245 249 253 255 252 253 256 260 262 265 273 279 286 293 296 299 301 302 299 298 298 301 303 299 300 295 289 283 281 284 281 281 281 282
221 222 222 223 225 228 231 234 238 242 246 249 252 252 252 252 255 259 260 264 273 279 286 291 292 294 298 300 303 299 298 302 304 303 301 294 288 287 286 284 284 283 284 287
223 223 222 222 224 227 230 233 237 241 244 247 249 250 252 252 254 258 259 262 270 278 285 290 289 289 294 297 300 298 295 300 301 299 295 292 289 290 289 287 290 288 288 287
225 225 225 224 225 228 231 234 238 241 244 246 248 250 252 253 256 260 260 260 267 272 278 285 285 288 292 293 296 296 294 299 300 296 290 288 284 285 290 290 291 292 291 291
227 227 227 227 227 231 233 235 238 241 244 247 248 249 252 255 256 258 259 261 265 270 274 278 282 286 288 292 294 293 293 295 295 295 295 290 287 290 291 292 293 291 288 289
229 229 230 230 231 235 235 236 239 242 245 248 248 248 251 254 256 258 259 261 266 272 277 281 285 285 284 286 288 286 288 289 287 288 289 288 288 289 291 291 292 293 291 295
230 231 232 233 236 238 239 241 242 245 247 247 246 248 252 255 256 259 261 265 268 273 279 281 282 283 281 279 276 278 280 281 283 285 285 286 288 288 288 288 290 289 290 294
230 232 235 237 239 241 241 242 243 245 247 247 248 249 251 254 256 258 259 262 267 272 275 278 280 281 276 270 267 268 273 277 279 282 282 282 284 286 286 287 289 291 292 294
230 233 236 238 240 242 244 244 243 246 246 247 248 250 251 252 255 256 260 262 263 271 275 276 277 276 270 263 261 265 270 276 279 281 281 281 282 285 287 287 287 289 292 294
231 233 236 239 241 243 244 245 244 243 244 246 249 250 251 253 254 255 257 261 262 267 271 271 271 271 266 257 258 262 269 275 279 280 280 280 280 282 284 285 286 288 290 291
233 235 237 239 241 242 244 245 245 245 245 245 247 249 249 251 252 253 257 258 259 264 266 267 269 268 262 260 256 259 267 272 276 279 281 280 280 281 282 286 288 289 288 288
234 235 236 237 239 240 242 245 244 244 245 246 247 248 248 250 250 253 255 253 255 259 264 264 264 265 263 261 259 264 269 274 278 279 280 280 281 283 283 285 285 287 289 289
233 236 237 237 238 241 243 244 243 243 243 245 246 245 247 249 249 252 253 251 253 256 260 262 260 261 263 261 262 268 271 274 278 282 281 279 281 282 283 284 285 286 287 288
Height
5879 5883 5886 5888 5889 5891 5893 5895 5897 5898 5898 5899 5900 5901 5902 5903 5903 5903 5903 5902 5902 5901 5900 5899 5898 5897 5897 5896 5894 5893 5893 5892 5891 5890 5889 5889 5888 5888 5887 5886 5888 5889 5890 5890
5877 5880 5883 5884 5886 5888 5891 5893 5895 5896 5896 5897 5898 5900 5901 5901 5902 5902 5901 5901 5900 5900 5899 5898 5897 5896 5896 5895 5894 5893 5892 5891 5890 5889 5888 5887 5886 5885 5885 5886 5886 5886 5887 5888
5872 5877 5878 5880 5883 5886 5888 5891 5892 5893 5894 5895 5896 5898 5899 5900 5900 5900 5900 5899 5899 5898 5897 5896 5896 5895 5894 5893 5892 5891 5890 5889 5888 5887 5886 5885 5884 5883 5882 5883 5883 5883 5883 5885
5867 5870 5874 5877 5880 5883 5885 5887 5889 5890 5891 5892 5894 5895 5897 5897 5897 5897 5897 5897 5897 5896 5895 5894 5894 5893 5892 5891 5890 5889 5888 5887 5886 5885 5884 5882 5881 5880 5880 5880 5880 5879 5880 5881
5862 5866 5869 5873 5877 5879 5882 5883 5885 5887 5888 5890 5891 5892 5895 5895 5895 5895 5895 5895 5895 5894 5894 5893 5891 5891 5890 5889 5888 5887 5886 5884 5883 5882 5881 5879 5878 5877 5876 5876 5876 5877 5877 5878
5857 5860 5864 5869 5872 5874 5877 5879 5881 5883 5885 5887 5889 5890 5891 5892 5892 5892 5893 5892 5892 5892 5891 5890 5889 5888 5887 5887 5886 5885 5884 5882 5881 5879 5878 5876 5875 5873 5873 5873 5873 5874 5875 5875
5852 5856 5860 5864 5867 5869 5872 5875 5877 5879 5881 5884 5886 5887 5889 5889 5889 5889 5890 5890 5889 5888 5888 5888 5886 5885 5885 5884 5883 5882 5881 5880 5878 5877 5875 5873 5872 5871 5871 5871 5871 5871 5872 5873
5847 5852 5856 5859 5863 5866 5869 5872 5875 5877 5879 5881 5882 5883 5886 5886 5886 5886 5886 5887 5886 5886 5886 5885 5884 5883 5882 5881 5880 5880 5878 5877 5875 5874 5872 5871 5870 5869 5868 5868 5868 5869 5869 5870
5842 5847 5851 5855 5858 5861 5864 5867 5870 5873 5874 5876 5878 5880 5882 5882 5883 5883 5884 5884 5884 5884 5883 5882 5882 5881 5879 5878 5877 5876 5875 5873 5872 5871 5870 5868 5867 5866 5865 5865 5865 5866 5866 5867
5836 5841 5845 5849 5852 5855 5859 5862 5865 5868 5870 5872 5874 5876 5879 5879 5880 5880 5881 5881 5881 5881 5880 5879 5878 5877 5875 5874 5874 5873 5872 5870 5869 5868 5866 5865 5864 5863 5863 5863 5863 5863 5863 5863
5830 5835 5840 5843 5846 5851 5855 5858 5860 5863 5866 5868 5870 5875 5875 5876 5876 5877 5878 5878 5878 5877 5877 5877 5875 5874 5872 5871 5871 5870 5869 5867 5866 5864 5863 5862 5861 5861 5861 5860 5860 5860 5860 5860
5825 5829 5834 5838 5842 5846 5849 5853 5856 5860 5862 5864 5866 5872 5871 5872 5873 5873 5874 5875 5875 5874 5874 5873 5873 5871 5870 5869 5868 5867 5866 5864 5863 5862 5861 5860 5859 5858 5858 5858 5858 5857 5857 5857
5819 5824 5828 5833 5839 5842 5844 5848 5852 5855 5857 5859 5862 5868 5868 5868 5869 5870 5871 5871 5871 5871 5871 5870 5870 5869 5868 5866 5865 5864 5863 5861 5860 5859 5858 5857 5856 5856 5856 5855 5855 5855 5855 5854
5815 5819 5825 5830 5834 5838 5841 5844 5848 5850 5853 5855 5859 5862 5864 5865 5866 5867 5868 5868 5868 5869 5869 5868 5867 5866 5865 5864 5862 5861 5860 5859 5858 5856 5855 5854 5854 5854 5854 5853 5853 5852 5852 5851
5809 5814 5819 5825 5829 5832 5836 5840 5843 5846 5849 5851 5854 5857 5859 5861 5862 5863 5864 5865 5865 5866 5865 5865 5864 5863 5862 5861 5860 5859 5858 5856 5855 5854 5852 5852 5852 5852 5851 5851 5850 5850 5849 5848
5804 5809 5814 5819 5823 5827 5830 5834 5838 5841 5843 5846 5849 5852 5855 5856 5858 5859 5861 5862 5862 5862 5862 5861 5861 5860 5859 5858 5858 5856 5855 5854 5853 5851 5849 5849 5849 5849 5849 5848 5848 5847 5846 5845
5799 5804 5809 5814 5818 5821 5825 5829 5833 5836 5839 5842 5845 5848 5850 5852 5854 5855 5856 5858 5858 5859 5859 5858 5858 5857 5856 5856 5855 5854 5853 5851 5850 5848 5846 5846 5847 5847 5846 5845 5845 5844 5843 5841
5795 5799 5804 5808 5813 5816 5823 5825 5828 5831 5834 5837 5840 5843 5845 5847 5849 5851 5852 5853 5854 5855 5855 5854 5853 5853 5853 5852 5851 5851 5850 5849 5848 5846 5845 5845 5845 5844 5844 5843 5842 5841 5840 5839
5789 5794 5798 5803 5806 5811 5816 5819 5823 5826 5829 5832 5835 5838 5840 5842 5844 5846 5847 5849 5850 5850 5850 5849 5849 5849 5848 5848 5847 5847 5847 5846 5845 5844 5844 5843 5842 5842 5841 5840 5839 5838 5837 5836
5784 5788 5793 5797 5801 5805 5811 5814 5817 5822 5824 5828 5830 5833 5835 5837 5840 5842 5843 5844 5845 5845 5845 5844 5844 5844 5844 5844 5843 5843 5843 5843 5842 5842 5841 5840 5840 5839 5839 5837 5836 5835 5834 5833
5777 5781 5786 5790 5794 5799 5804 5808 5812 5817 5820 5823 5824 5827 5830 5832 5835 5837 5838 5839 5840 5840 5840 5840 5839 5839 5840 5839 5839 5840 5840 5840 5839 5838 5838 5837 5837 5836 5835 5834 5833 5832 5831 5830
5770 5775 5779 5783 5788 5795 5798 5801 5806 5809 5813 5816 5819 5822 5824 5827 5828 5830 5832 5833 5835 5835 5835 5835 5834 5834 5834 5835 5835 5835 5836 5836 5836 5835 5834 5833 5833 5832 5831 5831 5830 5829 5827 5826
5763 5768 5772 5778 5784 5787 5791 5794 5798 5802 5806 5809 5813 5816 5818 5821 5822 5824 5826 5828 5829 5829 5830 5830 5830 5829 5829 5829 5830 5831 5832 5832 5831 5831 5830 5829 5829 5828 5827 5826 5825 5824 5823 5822
5756 5760 5765 5770 5775 5779 5783 5786 5790 5795 5798 5802 5806 5809 5812 5814 5816 5818 5820 5821 5822 5823 5824 5824 5825 5825 5825 5825 5826 5827 5827 5827 5827 5826 5826 5825 5824 5824 5823 5822 5821 5820 5818 5817
5748 5753 5757 5762 5767 5772 5776 5779 5783 5787 5791 5795 5799 5802 5805 5808 5810 5812 5814 5815 5817 5818 5819 5820 5820 5821 5821 5821 5822 5823 5823 5822 5822 5822 5821 5820 5820 5819 5818 5817 5816 5815 5813 5812
5741 5746 5751 5755 5760 5764 5769 5772 5776 5781 5784 5788 5792 5795 5798 5801 5803 5806 5808 5809 5811 5812 5813 5814 5815 5816 5817 5817 5818 5818 5818 5818 5817 5817 5816 5815 5815 5814 5813 5812 5811 5809 5808 5807